Location: Garos
(43.5000°N, 0.4667°W)
Time: 15:11:15
(UTC+00:00)

H-2A R/B - Pass Details

Date: 03 February 2023
Orbit: 732 x 836 km, 98.2° (Epoch: 24 March)

Event Time Altitude Azimuth Distance (km) Brightness Sun altitude
Rises 17:36:45 0° 194° (SSW) 3,252 5.7 -4.4°
Reaches altitude 10° 17:39:19 10° 205° (SSW) 2,346 5.2 -4.9°
Maximum altitude 17:43:50 30° 266° (W) 1,416 4.4 -5.6°
Drops below altitude 10° 17:48:29 10° 326° (NW) 2,417 4.8 -6.5°
Sets 17:51:10 0° 337° (NNW) 3,368 5.4 -6.9°
